ProjectID,Date,Electric Generation,Electric Utility Import,Facility Electric Load
,YYYY-MM-DD,kW,kW,kW
197,2013-10-01,0.0,0.0,0.0
197,2013-10-02,0.0,0.0,0.0
197,2013-10-03,0.0,0.0,0.0
197,2013-10-04,0.0,0.0,0.0
197,2013-10-05,0.0,0.0,0.0
197,2013-10-06,0.0,0.0,0.0
197,2013-10-07,0.0,0.0,0.0
197,2013-10-08,0.0,0.0,0.0
197,2013-10-09,0.0,0.0,0.0
197,2013-10-10,0.0,0.0,0.0
197,2013-10-11,0.0,0.0,0.0
197,2013-10-12,0.0,0.0,0.0
197,2013-10-13,0.0,0.0,0.0
197,2013-10-14,0.0,0.0,0.0
197,2013-10-15,0.0,0.0,0.0
197,2013-10-16,0.0,0.0,0.0
197,2013-10-17,0.0,0.0,0.0
197,2013-10-18,0.0,0.0,0.0
197,2013-10-19,0.0,0.0,0.0
197,2013-10-20,0.0,0.0,0.0
197,2013-10-21,0.0,0.0,0.0
197,2013-10-22,0.0,0.0,0.0
197,2013-10-23,0.0,0.0,0.0
197,2013-10-24,0.0,0.0,0.0
197,2013-10-25,0.0,0.0,0.0
197,2013-10-26,0.0,0.0,0.0
197,2013-10-27,0.0,0.0,0.0
197,2013-10-28,0.0,0.0,0.0
197,2013-10-29,0.0,0.0,0.0
197,2013-10-30,0.0,0.0,0.0
197,2013-10-31,16.736666666666668,13.916666666666666,30.653333333333336
197,2013-11-01,24.096666666666668,22.0,46.096666666666664
197,2013-11-02,23.539291666666667,21.916666666666668,45.455958333333335
197,2013-11-03,34.790083333333335,21.916666666666668,56.70675
197,2013-11-04,41.072583333333334,22.0,63.072583333333334
197,2013-11-05,40.59575,21.958333333333332,62.55408333333334
197,2013-11-06,31.700999999999997,22.0,53.70099999999999
197,2013-11-07,28.968374999999998,21.958333333333332,50.92670833333333
197,2013-11-08,41.13545833333333,21.916666666666668,63.052125000000004
197,2013-11-09,38.50683333333333,21.875,60.38183333333333
197,2013-11-10,35.45525,21.916666666666668,57.371916666666664
197,2013-11-11,38.802416666666666,21.916666666666668,60.71908333333333
197,2013-11-12,38.142875,21.958333333333332,60.10120833333333
197,2013-11-13,41.179375,21.916666666666668,63.096041666666665
197,2013-11-14,39.58304166666667,23.291666666666668,62.87470833333333
197,2013-11-15,33.1515,26.208333333333332,59.35983333333333
197,2013-11-16,29.420208333333335,26.125,55.545208333333335
197,2013-11-17,24.78775,26.166666666666668,50.95441666666667
197,2013-11-18,18.986083333333333,26.125,45.11108333333333
197,2013-11-19,31.932291666666668,26.166666666666668,58.098958333333336
197,2013-11-20,37.828875000000004,26.083333333333332,63.91220833333334
197,2013-11-21,37.355583333333335,26.083333333333332,63.43891666666667
197,2013-11-22,32.078250000000004,26.166666666666668,58.24491666666667
197,2013-11-23,32.988791666666664,26.125,59.113791666666664
197,2013-11-24,37.624874999999996,26.166666666666668,63.79154166666666
197,2013-11-25,40.473625,26.125,66.598625
197,2013-11-26,39.888666666666666,26.125,66.01366666666667
197,2013-11-27,32.571125,26.083333333333332,58.65445833333334
197,2013-11-28,37.840916666666665,26.125,63.965916666666665
197,2013-11-29,36.661125,26.083333333333332,62.74445833333333
197,2013-11-30,37.44883333333333,26.125,63.57383333333333
197,2013-12-01,37.54079166666667,26.041666666666668,63.582458333333335
197,2013-12-02,34.838208333333334,26.166666666666668,61.004875
197,2013-12-03,34.72233333333333,26.125,60.84733333333333
197,2013-12-04,33.60304166666666,26.041666666666668,59.64470833333333
197,2013-12-05,33.77316666666667,26.166666666666668,59.93983333333334
197,2013-12-06,34.006499999999996,26.208333333333332,60.21483333333333
197,2013-12-07,36.58883333333333,26.166666666666668,62.7555
197,2013-12-08,36.76645833333333,26.166666666666668,62.933125000000004
197,2013-12-09,41.31433333333333,26.166666666666668,67.481
197,2013-12-10,40.251083333333334,26.166666666666668,66.41775
197,2013-12-11,39.711416666666665,26.208333333333332,65.91975
197,2013-12-12,40.08179166666667,26.166666666666668,66.24845833333333
197,2013-12-13,39.851375,26.083333333333332,65.93470833333333
197,2013-12-14,38.050041666666665,26.208333333333332,64.258375
197,2013-12-15,38.460541666666664,26.166666666666668,64.62720833333333
197,2013-12-16,39.421708333333335,26.125,65.54670833333333
197,2013-12-17,39.812916666666666,26.083333333333332,65.89625
197,2013-12-18,38.88579166666667,26.291666666666668,65.17745833333333
197,2013-12-19,39.626666666666665,26.125,65.75166666666667
197,2013-12-20,31.79625,26.125,57.92125
197,2013-12-21,21.642875,26.25,47.892875000000004
197,2013-12-22,16.814458333333334,26.166666666666668,42.981125000000006
197,2013-12-23,28.175083333333333,26.083333333333332,54.25841666666666
197,2013-12-24,34.926,26.125,61.051
197,2013-12-25,36.24720833333333,26.125,62.37220833333333
197,2013-12-26,38.192791666666665,26.125,64.31779166666666
197,2013-12-27,38.59741666666667,26.041666666666668,64.63908333333333
197,2013-12-28,35.63091666666667,26.208333333333332,61.83925000000001
197,2013-12-29,29.330916666666667,26.125,55.45591666666667
197,2013-12-30,31.652625,26.291666666666668,57.94429166666667
197,2013-12-31,38.68866666666667,26.166666666666668,64.85533333333333
197,2014-01-01,34.383583333333334,26.125,60.508583333333334
197,2014-01-02,37.662083333333335,26.125,63.787083333333335
197,2014-01-03,38.195625,26.083333333333332,64.27895833333334
197,2014-01-04,37.5555,26.125,63.6805
197,2014-01-05,36.259458333333335,26.125,62.384458333333335
197,2014-01-06,34.788041666666665,26.208333333333332,60.996375
197,2014-01-07,39.785125,26.208333333333332,65.99345833333334
197,2014-01-08,41.142208333333336,26.166666666666668,67.308875
197,2014-01-09,39.62083333333333,26.208333333333332,65.82916666666667
197,2014-01-10,39.695625,26.166666666666668,65.86229166666666
197,2014-01-11,37.462875000000004,26.083333333333332,63.54620833333334
197,2014-01-12,32.25266666666666,26.125,58.37766666666666
197,2014-01-13,38.18604166666667,26.166666666666668,64.35270833333334
197,2014-01-14,33.22,26.208333333333332,59.42833333333333
197,2014-01-15,33.95308333333333,26.125,60.07808333333333
197,2014-01-16,35.16141666666667,26.166666666666668,61.32808333333334
197,2014-01-17,39.353125,26.125,65.478125
197,2014-01-18,32.56166666666667,26.166666666666668,58.72833333333334
197,2014-01-19,36.052,26.125,62.177
197,2014-01-20,37.43391666666667,26.125,63.55891666666667
197,2014-01-21,39.513416666666664,26.125,65.63841666666667
197,2014-01-22,41.87883333333333,26.125,68.00383333333333
197,2014-01-23,42.086708333333334,26.166666666666668,68.253375
197,2014-01-24,41.421875,26.083333333333332,67.50520833333333
197,2014-01-25,38.66320833333334,26.166666666666668,64.829875
197,2014-01-26,38.65354166666666,26.125,64.77854166666665
197,2014-01-27,40.22325,26.083333333333332,66.30658333333334
197,2014-01-28,41.87029166666667,26.083333333333332,67.953625
197,2014-01-29,40.65558333333333,26.166666666666668,66.82225
197,2014-01-30,41.09441666666667,26.125,67.21941666666666
197,2014-01-31,40.279833333333336,26.125,66.40483333333333
197,2014-02-01,36.28575,26.125,62.41075
197,2014-02-02,35.367583333333336,26.083333333333332,61.45091666666667
197,2014-02-03,35.717958333333335,26.125,61.842958333333335
197,2014-02-04,39.81529166666667,26.083333333333332,65.898625
197,2014-02-05,39.53754166666666,26.125,65.66254166666667
197,2014-02-06,41.06475,26.083333333333332,67.14808333333333
197,2014-02-07,40.68875,26.208333333333332,66.89708333333333
197,2014-02-08,38.731125,26.083333333333332,64.81445833333333
197,2014-02-09,38.20458333333333,26.166666666666668,64.37125
197,2014-02-10,40.886625,26.125,67.01162500000001
197,2014-02-11,41.105916666666666,26.166666666666668,67.27258333333333
197,2014-02-12,41.31220833333334,26.041666666666668,67.353875
197,2014-02-13,37.91216666666667,26.083333333333332,63.99550000000001
197,2014-02-14,38.02825,26.166666666666668,64.19491666666667
197,2014-02-15,36.92883333333334,26.083333333333332,63.01216666666667
197,2014-02-16,36.261916666666664,26.125,62.386916666666664
197,2014-02-17,38.04566666666667,26.166666666666668,64.21233333333333
197,2014-02-18,39.402166666666666,26.416666666666668,65.81883333333333
197,2014-02-19,38.80983333333334,26.25,65.05983333333333
197,2014-02-20,40.01891666666666,26.208333333333332,66.22725
197,2014-02-21,39.161208333333335,26.083333333333332,65.24454166666666
197,2014-02-22,32.974041666666665,26.125,59.099041666666665
197,2014-02-23,31.575916666666668,26.083333333333332,57.65925
197,2014-02-24,34.750875,25.958333333333332,60.709208333333336
197,2014-02-25,39.41695833333333,26.125,65.54195833333333
197,2014-02-26,40.19170833333333,26.041666666666668,66.233375
197,2014-02-27,40.846583333333335,26.125,66.97158333333334
197,2014-02-28,40.40720833333334,26.125,66.53220833333333
197,2014-03-01,37.41354166666667,26.125,63.53854166666667
197,2014-03-02,38.404625,26.166666666666668,64.57129166666667
197,2014-03-03,41.47654166666667,26.25,67.72654166666666
197,2014-03-04,41.81633333333333,26.125,67.94133333333333
197,2014-03-05,45.509875,26.041666666666668,71.55154166666667
197,2014-03-06,46.042249999999996,26.041666666666668,72.08391666666667
197,2014-03-07,43.785875000000004,26.166666666666668,69.95254166666668
197,2014-03-08,41.65895833333334,26.0,67.65895833333335
197,2014-03-09,37.00354166666667,26.083333333333332,63.086875000000006
197,2014-03-10,41.520125,26.083333333333332,67.60345833333334
197,2014-03-11,28.093833333333333,26.166666666666668,54.2605
197,2014-03-12,38.16525,26.083333333333332,64.24858333333333
197,2014-03-13,45.46816666666667,26.083333333333332,71.5515
197,2014-03-14,45.308625,26.125,71.433625
197,2014-03-15,34.800291666666666,26.166666666666668,60.96695833333334
197,2014-03-16,39.812333333333335,26.166666666666668,65.979
197,2014-03-17,44.300625,26.125,70.425625
197,2014-03-18,43.52020833333333,26.166666666666668,69.686875
197,2014-03-19,40.86604166666667,26.125,66.99104166666666
197,2014-03-20,36.96204166666667,26.083333333333332,63.04537500000001
197,2014-03-21,31.198166666666665,26.166666666666668,57.36483333333334
197,2014-03-22,23.151791666666668,26.0,49.15179166666667
197,2014-03-23,30.110166666666668,26.166666666666668,56.276833333333336
197,2014-03-24,37.30016666666666,26.166666666666668,63.46683333333333
197,2014-03-25,37.070625,26.083333333333332,63.153958333333335
197,2014-03-26,36.980624999999996,26.166666666666668,63.14729166666666
197,2014-03-27,37.555416666666666,26.083333333333332,63.63875
197,2014-03-28,35.794583333333335,26.0,61.794583333333335
197,2014-03-29,28.243875,26.125,54.368875
197,2014-03-30,28.910458333333334,26.041666666666668,54.952125
197,2014-03-31,36.11629166666667,26.166666666666668,62.28295833333334
197,2014-04-01,25.988500000000002,26.166666666666668,52.15516666666667
197,2014-04-02,31.131708333333332,26.041666666666668,57.173375
197,2014-04-03,23.491541666666667,26.125,49.61654166666666
197,2014-04-04,32.598875,26.125,58.723875
197,2014-04-05,29.207083333333333,26.0,55.20708333333333
197,2014-04-06,29.769458333333333,26.083333333333332,55.85279166666666
197,2014-04-07,31.42395833333333,26.125,57.54895833333333
197,2014-04-08,22.648041666666668,26.125,48.77304166666667
197,2014-04-09,23.749208333333332,26.125,49.87420833333333
197,2014-04-10,22.187625,26.083333333333332,48.27095833333333
197,2014-04-11,17.998833333333334,26.083333333333332,44.082166666666666
197,2014-04-12,18.1635,26.166666666666668,44.33016666666667
197,2014-04-13,16.346416666666666,26.208333333333332,42.55475
197,2014-04-14,17.88629166666667,26.083333333333332,43.969625
197,2014-04-15,23.162541666666666,26.166666666666668,49.329208333333334
197,2014-04-16,37.830625,26.083333333333332,63.913958333333326
197,2014-04-17,34.17729166666667,26.083333333333332,60.260625000000005
197,2014-04-18,33.79483333333334,26.083333333333332,59.87816666666667
197,2014-04-19,19.559416666666667,26.041666666666668,45.601083333333335
197,2014-04-20,24.399208333333334,26.125,50.524208333333334
197,2014-04-21,21.152291666666667,26.166666666666668,47.318958333333335
197,2014-04-22,19.434416666666667,26.125,45.559416666666664
197,2014-04-23,26.0565,26.083333333333332,52.13983333333333
197,2014-04-24,22.1835,26.208333333333332,48.39183333333333
197,2014-04-25,24.60529166666667,27.333333333333332,51.938625
197,2014-04-26,23.026791666666668,26.125,49.15179166666667
197,2014-04-27,17.567458333333335,26.166666666666668,43.734125000000006
197,2014-04-28,20.573333333333334,26.166666666666668,46.74
197,2014-04-29,30.639333333333337,26.166666666666668,56.806000000000004
197,2014-04-30,31.550208333333334,26.166666666666668,57.716875
197,2014-05-01,19.125958333333333,26.208333333333332,45.334291666666665
197,2014-05-02,16.933083333333332,26.041666666666668,42.97475
197,2014-05-03,16.745541666666664,26.041666666666668,42.78720833333333
197,2014-05-04,15.430208333333333,26.125,41.55520833333333
197,2014-05-05,19.241333333333333,26.083333333333332,45.324666666666666
197,2014-05-06,17.006333333333334,26.166666666666668,43.173
197,2014-05-07,17.576958333333334,26.208333333333332,43.785291666666666
197,2014-05-08,17.660999999999998,26.125,43.786
197,2014-05-09,17.546208333333333,26.083333333333332,43.62954166666667
197,2014-05-10,16.949041666666666,26.166666666666668,43.11570833333333
197,2014-05-11,16.746291666666668,26.125,42.871291666666664
197,2014-05-12,18.906333333333333,26.166666666666668,45.073
197,2014-05-13,17.805291666666665,26.083333333333332,43.888625
197,2014-05-14,17.761916666666668,26.166666666666668,43.928583333333336
197,2014-05-15,18.259625,26.125,44.384625
197,2014-05-16,18.682750000000002,26.125,44.80775
197,2014-05-17,15.560125,26.208333333333332,41.76845833333333
197,2014-05-18,15.097166666666666,26.125,41.222166666666666
197,2014-05-19,17.601833333333335,26.125,43.72683333333333
197,2014-05-20,18.266791666666666,26.125,44.39179166666666
197,2014-05-21,18.870375,26.166666666666668,45.03704166666667
197,2014-05-22,18.374791666666667,26.166666666666668,44.54145833333334
197,2014-05-23,17.66425,26.125,43.789249999999996
197,2014-05-24,16.340958333333333,26.083333333333332,42.42429166666666
197,2014-05-25,15.991083333333334,26.208333333333332,42.199416666666664
197,2014-05-26,16.569958333333332,26.083333333333332,42.65329166666666
197,2014-05-27,19.7615,26.125,45.8865
197,2014-05-28,17.666333333333334,26.25,43.916333333333334
197,2014-05-29,18.38595833333333,26.083333333333332,44.46929166666666
197,2014-05-30,18.410375,26.166666666666668,44.577041666666666
197,2014-05-31,16.24054166666667,26.083333333333332,42.323875
197,2014-06-01,16.184958333333334,26.125,42.309958333333334
197,2014-06-02,18.074625,26.208333333333332,44.28295833333333
197,2014-06-03,20.123875,26.083333333333332,46.207208333333334
197,2014-06-04,18.859958333333335,26.166666666666668,45.026625
197,2014-06-05,19.681791666666665,26.166666666666668,45.84845833333333
197,2014-06-06,18.435125,26.166666666666668,44.60179166666667
197,2014-06-07,17.037791666666667,26.166666666666668,43.204458333333335
197,2014-06-08,17.018041666666665,26.125,43.14304166666666
197,2014-06-09,19.292125000000002,26.083333333333332,45.375458333333334
197,2014-06-10,20.190916666666666,26.125,46.315916666666666
197,2014-06-11,18.341958333333334,26.125,44.46695833333334
197,2014-06-12,18.437,26.083333333333332,44.52033333333333
197,2014-06-13,19.346708333333336,26.041666666666668,45.388375
197,2014-06-14,16.118875,26.125,42.243875
197,2014-06-15,16.160041666666668,26.125,42.28504166666667
197,2014-06-16,19.26975,26.125,45.39475
197,2014-06-17,20.078833333333332,26.791666666666668,46.8705
197,2014-06-18,21.587875,26.083333333333332,47.67120833333333
197,2014-06-19,20.843875,26.041666666666668,46.88554166666667
197,2014-06-20,18.863083333333332,26.166666666666668,45.02975
197,2014-06-21,17.222916666666666,26.166666666666668,43.389583333333334
197,2014-06-22,16.980708333333332,26.166666666666668,43.147375
197,2014-06-23,20.103166666666667,26.083333333333332,46.186499999999995
197,2014-06-24,20.461875,26.041666666666668,46.50354166666666
197,2014-06-25,21.62875,26.083333333333332,47.71208333333333
197,2014-06-26,22.344624999999997,26.125,48.46962499999999
197,2014-06-27,21.672208333333334,26.125,47.79720833333333
197,2014-06-28,19.409791666666667,26.083333333333332,45.493125
197,2014-06-29,19.599208333333333,26.041666666666668,45.640875
197,2014-06-30,23.5565,24.791666666666668,48.34816666666667
197,2014-07-01,25.605375,22.0,47.605374999999995
197,2014-07-02,26.766958333333335,21.958333333333332,48.725291666666664
197,2014-07-03,26.264958333333336,21.958333333333332,48.22329166666667
197,2014-07-04,20.680083333333332,22.083333333333332,42.763416666666664
197,2014-07-05,20.236291666666666,22.0,42.236291666666666
197,2014-07-06,20.344125000000002,22.0,42.344125000000005
197,2014-07-07,25.347083333333334,22.0,47.34708333333333
197,2014-07-08,27.156625000000002,22.0,49.156625000000005
197,2014-07-09,26.045333333333332,22.083333333333332,48.12866666666666
197,2014-07-10,24.755666666666666,22.541666666666668,47.297333333333334
197,2014-07-11,26.24308333333333,21.958333333333332,48.20141666666666
197,2014-07-12,23.951125,22.0,45.951125000000005
197,2014-07-13,23.163291666666666,22.0,45.163291666666666
197,2014-07-14,27.154833333333332,21.958333333333332,49.113166666666665
197,2014-07-15,28.467958333333332,21.916666666666668,50.384625
197,2014-07-16,26.284499999999998,22.0,48.284499999999994
197,2014-07-17,26.136375,22.0,48.136375
197,2014-07-18,25.94141666666667,22.0,47.94141666666667
197,2014-07-19,23.400583333333334,21.958333333333332,45.358916666666666
197,2014-07-20,22.18104166666667,22.0,44.18104166666667
197,2014-07-21,26.429166666666664,22.0,48.42916666666666
197,2014-07-22,26.533291666666667,21.958333333333332,48.491625
197,2014-07-23,28.263,22.0,50.263000000000005
197,2014-07-24,26.989,22.041666666666668,49.03066666666667
197,2014-07-25,27.05541666666667,22.041666666666668,49.09708333333334
197,2014-07-26,24.544666666666668,21.958333333333332,46.503
197,2014-07-27,25.971416666666666,21.916666666666668,47.888083333333334
197,2014-07-28,27.903666666666666,21.958333333333332,49.861999999999995
197,2014-07-29,26.28216666666667,22.0,48.28216666666667
197,2014-07-30,26.450208333333332,22.0,48.450208333333336
197,2014-07-31,26.996125000000003,21.958333333333332,48.954458333333335
197,2014-08-01,27.097375,22.083333333333332,49.18070833333333
197,2014-08-02,24.429916666666667,22.0,46.42991666666667
197,2014-08-03,23.382375,22.0,45.382374999999996
197,2014-08-04,25.986583333333332,22.0,47.98658333333333
197,2014-08-05,25.978791666666666,22.041666666666668,48.02045833333334
197,2014-08-06,25.70220833333333,21.958333333333332,47.66054166666666
197,2014-08-07,25.501333333333335,22.041666666666668,47.543000000000006
197,2014-08-08,26.620125,22.541666666666668,49.16179166666667
197,2014-08-09,24.751375,22.0,46.751374999999996
197,2014-08-10,23.713458333333335,22.041666666666668,45.75512500000001
197,2014-08-11,26.187124999999998,22.0,48.187124999999995
197,2014-08-12,26.377375,22.0,48.377375
197,2014-08-13,26.81041666666667,22.041666666666668,48.85208333333334
197,2014-08-14,25.64770833333333,21.958333333333332,47.60604166666666
197,2014-08-15,24.374416666666665,22.0,46.37441666666666
197,2014-08-16,22.096,21.916666666666668,44.01266666666667
197,2014-08-17,21.898958333333336,22.041666666666668,43.940625000000004
197,2014-08-18,25.930041666666668,21.916666666666668,47.84670833333334
197,2014-08-19,25.333541666666665,22.041666666666668,47.37520833333333
197,2014-08-20,25.680374999999998,22.083333333333332,47.76370833333333
197,2014-08-21,25.701625000000003,22.0,47.70162500000001
197,2014-08-22,25.250083333333333,22.0,47.250083333333336
197,2014-08-23,23.37816666666667,22.0,45.37816666666667
197,2014-08-24,23.52116666666667,21.958333333333332,45.4795
197,2014-08-25,26.30966666666667,21.958333333333332,48.268
197,2014-08-26,27.286,22.083333333333332,49.36933333333333
197,2014-08-27,28.042541666666665,22.0,50.042541666666665
197,2014-08-28,26.57195833333333,22.041666666666668,48.613625
197,2014-08-29,24.76845833333333,21.958333333333332,46.726791666666664
197,2014-08-30,23.383125000000003,22.041666666666668,45.42479166666667
197,2014-08-31,22.843541666666667,22.041666666666668,44.88520833333334
197,2014-09-01,24.893874999999998,22.041666666666668,46.935541666666666
197,2014-09-02,28.355583333333332,22.041666666666668,50.39725
197,2014-09-03,26.870041666666665,22.083333333333332,48.953374999999994
197,2014-09-04,27.26025,22.0,49.26025
197,2014-09-05,28.109416666666664,22.041666666666668,50.15108333333333
197,2014-09-06,24.837833333333332,22.041666666666668,46.8795
197,2014-09-07,21.757333333333335,22.0,43.757333333333335
197,2014-09-08,24.61520833333333,22.041666666666668,46.656875
197,2014-09-09,24.083291666666668,21.958333333333332,46.041624999999996
197,2014-09-10,25.028208333333335,22.0,47.02820833333334
197,2014-09-11,25.809791666666666,22.0,47.80979166666667
197,2014-09-12,23.6935,22.0,45.6935
197,2014-09-13,21.95420833333333,21.958333333333332,43.91254166666666
197,2014-09-14,21.482625,22.0,43.482625
197,2014-09-15,23.158416666666668,22.0,45.15841666666667
197,2014-09-16,23.959333333333333,22.0,45.95933333333333
197,2014-09-17,23.439166666666665,21.958333333333332,45.397499999999994
197,2014-09-18,24.122208333333333,22.0,46.12220833333333
197,2014-09-19,23.649124999999998,22.0,45.649125
197,2014-09-20,22.16570833333333,22.0,44.16570833333333
197,2014-09-21,21.970083333333335,22.083333333333332,44.053416666666664
197,2014-09-22,24.386791666666667,21.958333333333332,46.345124999999996
197,2014-09-23,23.740750000000002,22.0,45.740750000000006
197,2014-09-24,23.720875000000003,22.0,45.72087500000001
197,2014-09-25,23.614583333333332,21.958333333333332,45.572916666666664
197,2014-09-26,23.64045833333333,21.958333333333332,45.59879166666666
197,2014-09-27,22.739041666666665,22.0,44.739041666666665
197,2014-09-28,21.459041666666668,22.0,43.459041666666664
197,2014-09-29,23.572833333333335,22.0,45.572833333333335
197,2014-09-30,23.971041666666665,22.041666666666668,46.012708333333336
197,2014-10-01,24.013125000000002,21.958333333333332,45.97145833333333
197,2014-10-02,23.622500000000002,21.958333333333332,45.58083333333333
197,2014-10-03,23.540916666666664,22.041666666666668,45.58258333333333
197,2014-10-04,22.283416666666668,22.0,44.28341666666667
197,2014-10-05,21.24020833333333,22.041666666666668,43.281875
197,2014-10-06,22.988625,21.958333333333332,44.94695833333333
197,2014-10-07,23.412041666666667,22.0,45.41204166666667
197,2014-10-08,23.049791666666668,21.958333333333332,45.008125
197,2014-10-09,23.307708333333334,21.958333333333332,45.266041666666666
197,2014-10-10,22.37308333333333,22.0,44.37308333333333
197,2014-10-11,21.64154166666667,22.0,43.64154166666667
197,2014-10-12,24.737333333333336,22.0,46.73733333333334
197,2014-10-13,20.755583333333334,22.0,42.755583333333334
197,2014-10-14,22.828625,22.0,44.828625
197,2014-10-15,25.216541666666668,22.0,47.21654166666667
197,2014-10-16,25.542208333333335,21.958333333333332,47.50054166666666
197,2014-10-17,23.604,22.0,45.604
197,2014-10-18,20.573666666666664,22.0,42.57366666666667
197,2014-10-19,24.969708333333333,21.958333333333332,46.928041666666665
197,2014-10-20,28.030833333333334,22.041666666666668,50.072500000000005
197,2014-10-21,22.993708333333334,21.958333333333332,44.952041666666666
197,2014-10-22,28.292583333333337,22.041666666666668,50.334250000000004
197,2014-10-23,37.454,22.0,59.454
197,2014-10-24,28.615666666666666,22.0,50.61566666666667
197,2014-10-25,24.83729166666667,22.0,46.83729166666667
197,2014-10-26,21.299875,22.0,43.299875
197,2014-10-27,26.33020833333333,21.958333333333332,48.28854166666666
197,2014-10-28,23.261958333333336,22.041666666666668,45.303625000000004
197,2014-10-29,23.38954166666667,21.958333333333332,45.347875
197,2014-10-30,28.795041666666666,22.0,50.79504166666666
197,2014-10-31,35.152499999999996,22.083333333333332,57.23583333333333